| time (UTC) | temp F | wind direction | speed MPH | gust MPH | rain 1hr in | rain 24hr in | rain mn in | humidity % | barometer mb |
| 20260510074009 | 58 | 352 | 0.0 | 0.0 | 0.00 | 0.00 | 0.00 | 90 | 1011.6 |
| 20260510073509 | 59 | 352 | 0.0 | 0.0 | 0.00 | 0.00 | 0.00 | 89 | 1011.6 |
| 20260510073025 | 59 | 352 | 0.0 | 0.0 | 0.00 | 0.00 | 0.00 | 89 | 1011.6 |
| 20260510072505 | 59 | 352 | 0.0 | 0.0 | 0.00 | 0.00 | 0.00 | 89 | 1011.6 |
| 20260510072006 | 60 | 352 | 0.0 | 0.0 | 0.00 | 0.00 | 0.00 | 89 | 1011.6 |
| 20260510071516 | 60 | 352 | 0.0 | 0.0 | 0.00 | 0.00 | 0.00 | 88 | 1011.6 |
| 20260510071009 | 60 | 352 | 0.0 | 0.0 | 0.00 | 0.00 | 0.00 | 88 | 1011.5 |
| 20260510070506 | 61 | 352 | 0.0 | 0.0 | 0.00 | 0.00 | 0.00 | 87 | 1011.4 |
| 20260510070023 | 61 | 352 | 0.0 | 0.0 | 0.00 | 0.00 | 0.00 | 87 | 1011.5 |
| 20260510065506 | 61 | 352 | 0.0 | 0.0 | 0.00 | 0.00 | 0.00 | 87 | 1011.5 |
| 20260510065009 | 62 | 352 | 0.0 | 0.0 | 0.00 | 0.00 | 0.00 | 87 | 1011.5 |
| 20260510064542 | 62 | 352 | 0.0 | 2.0 | 0.00 | 0.00 | 0.00 | 86 | 1011.5 |
| 20260510064005 | 62 | 352 | 0.0 | 2.0 | 0.00 | 0.00 | 0.00 | 86 | 1011.5 |
| 20260510063509 | 62 | 19 | 0.0 | 1.0 | 0.00 | 0.00 | 0.00 | 86 | 1011.6 |
| 20260510063019 | 63 | 19 | 0.0 | 1.0 | 0.00 | 0.00 | 0.00 | 85 | 1011.6 |
| 20260510062506 | 63 | 19 | 0.0 | 1.0 | 0.00 | 0.00 | 0.00 | 85 | 1011.6 |
| 20260510062007 | 63 | 27 | 0.0 | 2.0 | 0.00 | 0.00 | 0.00 | 85 | 1011.6 |
| 20260510061530 | 63 | 5 | 0.0 | 2.0 | 0.00 | 0.00 | 0.00 | 84 | 1011.6 |
| 20260510061006 | 63 | 5 | 0.0 | 2.0 | 0.00 | 0.00 | 0.00 | 84 | 1011.5 |
| 20260510060508 | 63 | 30 | 0.0 | 2.0 | 0.00 | 0.00 | 0.00 | 84 | 1011.6 |
| 20260510060026 | 63 | 5 | 0.0 | 2.0 | 0.00 | 0.00 | 0.00 | 84 | 1011.6 |
| 20260510055510 | 64 | 46 | 0.0 | 1.0 | 0.00 | 0.00 | 0.00 | 83 | 1011.5 |
| 20260510055001 | 64 | 32 | 0.0 | 2.0 | 0.00 | 0.00 | 0.00 | 83 | 1011.4 |
| 20260510054510 | 64 | 10 | 0.0 | 2.0 | 0.00 | 0.00 | 0.00 | 83 | 1011.6 |
| 20260510054007 | 64 | 315 | 0.0 | 3.0 | 0.00 | 0.00 | 0.00 | 83 | 1011.7 |
| 20260510053506 | 64 | 81 | 0.0 | 5.0 | 0.00 | 0.00 | 0.00 | 83 | 1011.6 |
| 20260510053012 | 64 | 90 | 0.0 | 4.0 | 0.00 | 0.00 | 0.00 | 82 | 1011.6 |
| 20260510052505 | 64 | 355 | 0.0 | 2.0 | 0.00 | 0.00 | 0.00 | 82 | 1011.6 |
| 20260510052007 | 64 | 101 | 0.0 | 2.0 | 0.00 | 0.00 | 0.00 | 82 | 1011.6 |
| 20260510051514 | 64 | 103 | 0.0 | 2.0 | 0.00 | 0.00 | 0.00 | 81 | 1011.6 |
| 20260510051006 | 65 | 76 | 0.0 | 2.0 | 0.00 | 0.00 | 0.00 | 81 | 1011.7 |
| 20260510050502 | 65 | 127 | 0.0 | 2.0 | 0.00 | 0.00 | 0.00 | 81 | 1011.6 |
| 20260510050014 | 65 | 150 | 0.0 | 4.0 | 0.00 | 0.00 | 0.00 | 80 | 1011.7 |
| 20260510045504 | 65 | 122 | 1.0 | 4.0 | 0.00 | 0.00 | 0.00 | 80 | 1011.6 |
| 20260510045010 | 65 | 144 | 0.0 | 4.0 | 0.00 | 0.00 | 0.00 | 80 | 1011.6 |
| 20260510044516 | 65 | 153 | 0.0 | 2.0 | 0.00 | 0.00 | 0.00 | 80 | 1011.6 |
| 20260510044004 | 65 | 160 | 0.0 | 2.0 | 0.00 | 0.00 | 0.00 | 79 | 1011.6 |
| 20260510043504 | 65 | 197 | 0.0 | 3.0 | 0.00 | 0.00 | 0.00 | 79 | 1011.6 |
| 20260510043019 | 65 | 165 | 0.0 | 4.0 | 0.00 | 0.00 | 0.00 | 79 | 1011.6 |
| 20260510042503 | 65 | 117 | 0.0 | 7.0 | 0.00 | 0.00 | 0.00 | 78 | 1011.5 |
| 20260510042009 | 65 | 143 | 0.0 | 7.0 | 0.00 | 0.00 | 0.00 | 78 | 1011.5 |
| 20260510041517 | 65 | 78 | 0.0 | 2.0 | 0.00 | 0.00 | 0.00 | 78 | 1011.5 |
| 20260510041003 | 65 | 198 | 0.0 | 3.0 | 0.00 | 0.00 | 0.00 | 78 | 1011.5 |
| 20260510040506 | 65 | 165 | 0.0 | 3.0 | 0.00 | 0.00 | 0.00 | 78 | 1011.5 |
| 20260510040018 | 65 | 175 | 0.0 | 5.0 | 0.00 | 0.00 | 0.00 | 77 | 1011.4 |
| 20260510035502 | 65 | 142 | 0.0 | 5.0 | 0.00 | 0.00 | 0.00 | 77 | 1011.4 |
| 20260510035006 | 65 | 179 | 0.0 | 1.0 | 0.00 | 0.00 | 0.00 | 77 | 1011.4 |
| 20260510034521 | 65 | 150 | 0.0 | 2.0 | 0.00 | 0.00 | 0.00 | 77 | 1011.3 |
| 20260510034003 | 65 | 123 | 0.0 | 2.0 | 0.00 | 0.00 | 0.00 | 76 | 1011.3 |
| 20260510033506 | 66 | 127 | 0.0 | 2.0 | 0.00 | 0.00 | 0.00 | 75 | 1011.3 |
| 20260510033019 | 66 | 175 | 0.0 | 2.0 | 0.00 | 0.00 | 0.00 | 75 | 1011.3 |
| 20260510032502 | 66 | 170 | 0.0 | 3.0 | 0.00 | 0.00 | 0.00 | 75 | 1011.2 |
| 20260510032007 | 66 | 194 | 0.0 | 8.0 | 0.00 | 0.00 | 0.00 | 74 | 1011.2 |
| 20260510031522 | 66 | 136 | 0.0 | 8.0 | 0.00 | 0.00 | 0.00 | 74 | 1011.2 |
| 20260510031004 | 66 | 103 | 0.0 | 4.0 | 0.00 | 0.00 | 0.00 | 74 | 1011.2 |
| 20260510030506 | 66 | 146 | 0.0 | 4.0 | 0.00 | 0.00 | 0.00 | 74 | 1011.1 |
| 20260510030019 | 66 | 189 | 1.0 | 4.0 | 0.00 | 0.00 | 0.00 | 73 | 1011.1 |
| 20260510025504 | 67 | 171 | 0.0 | 4.0 | 0.00 | 0.00 | 0.00 | 73 | 1011.2 |
| 20260510025006 | 67 | 194 | 1.0 | 3.0 | 0.00 | 0.00 | 0.00 | 73 | 1011.1 |
| 20260510024528 | 67 | 175 | 0.0 | 5.0 | 0.00 | 0.00 | 0.00 | 72 | 1011.1 |
| 20260510024003 | 67 | 168 | 1.0 | 5.0 | 0.00 | 0.00 | 0.00 | 72 | 1011.0 |
| 20260510023508 | 67 | 189 | 0.0 | 4.0 | 0.00 | 0.00 | 0.00 | 72 | 1011.0 |
| 20260510023025 | 67 | 209 | 1.0 | 5.0 | 0.00 | 0.00 | 0.00 | 72 | 1010.9 |
| 20260510022504 | 67 | 176 | 1.0 | 5.0 | 0.00 | 0.00 | 0.00 | 72 | 1010.9 |
| 20260510022006 | 67 | 165 | 0.0 | 4.0 | 0.00 | 0.00 | 0.00 | 72 | 1010.8 |
| 20260510021522 | 67 | 132 | 1.0 | 3.0 | 0.00 | 0.00 | 0.00 | 72 | 1010.8 |
| 20260510021003 | 66 | 171 | 0.0 | 3.0 | 0.00 | 0.00 | 0.00 | 72 | 1010.7 |
| 20260510020507 | 66 | 113 | 0.0 | 2.0 | 0.00 | 0.00 | 0.00 | 72 | 1010.7 |
| 20260510020024 | 67 | 155 | 0.0 | 0.0 | 0.00 | 0.00 | 0.00 | 72 | 1010.6 |
| 20260510015503 | 67 | 136 | 0.0 | 0.0 | 0.00 | 0.00 | 0.00 | 72 | 1010.5 |
| 20260510015007 | 67 | 130 | 0.0 | 0.0 | 0.00 | 0.00 | 0.00 | 72 | 1010.4 |
| 20260510014529 | 67 | 172 | 0.0 | 0.0 | 0.00 | 0.00 | 0.00 | 72 | 1010.4 |
| 20260510014004 | 67 | 151 | 0.0 | 0.0 | 0.00 | 0.00 | 0.00 | 72 | 1010.3 |
| 20260510013507 | 66 | 149 | 0.0 | 0.0 | 0.00 | 0.00 | 0.00 | 72 | 1010.2 |
| 20260510013025 | 66 | 148 | 0.0 | 0.0 | 0.00 | 0.00 | 0.00 | 72 | 1010.2 |
| 20260510012503 | 66 | 142 | 0.0 | 0.0 | 0.00 | 0.00 | 0.00 | 72 | 1010.2 |
| 20260510012009 | 66 | 154 | 0.0 | 0.0 | 0.00 | 0.00 | 0.00 | 73 | 1010.2 |
| 20260510011528 | 66 | 149 | 0.0 | 0.0 | 0.00 | 0.00 | 0.00 | 73 | 1010.1 |
| 20260510011006 | 66 | 149 | 0.0 | 0.0 | 0.00 | 0.00 | 0.00 | 73 | 1010.0 |
| 20260510010506 | 66 | 149 | 0.0 | 0.0 | 0.00 | 0.00 | 0.00 | 73 | 1009.9 |
| 20260510010025 | 66 | 150 | 0.0 | 0.0 | 0.00 | 0.00 | 0.00 | 73 | 1009.9 |
| 20260510005507 | 66 | 149 | 0.0 | 0.0 | 0.00 | 0.00 | 0.00 | 73 | 1009.9 |
| 20260510005006 | 66 | 149 | 0.0 | 0.0 | 0.00 | 0.00 | 0.00 | 72 | 1009.8 |
| 20260510004526 | 66 | 149 | 0.0 | 2.0 | 0.00 | 0.00 | 0.00 | 73 | 1009.7 |
| 20260510004010 | 66 | 153 | 0.0 | 2.0 | 0.00 | 0.00 | 0.00 | 72 | 1009.6 |
| 20260510003514 | 67 | 151 | 0.0 | 0.0 | 0.00 | 0.00 | 0.00 | 72 | 1009.6 |
| 20260510003034 | 67 | 151 | 0.0 | 1.0 | 0.00 | 0.00 | 0.00 | 71 | 1009.6 |
| 20260510002506 | 67 | 151 | 0.0 | 1.0 | 0.00 | 0.00 | 0.00 | 70 | 1009.6 |
| 20260510002010 | 68 | 151 | 0.0 | 1.0 | 0.00 | 0.00 | 0.00 | 70 | 1009.5 |
| 20260510001528 | 68 | 121 | 0.0 | 0.0 | 0.00 | 0.00 | 0.00 | 70 | 1009.3 |
| 20260510001007 | 69 | 116 | 0.0 | 1.0 | 0.00 | 0.00 | 0.00 | 70 | 1009.4 |
| 20260510000507 | 69 | 116 | 0.0 | 1.0 | 0.00 | 0.00 | 0.00 | 68 | 1009.3 |
| 20260510000030 | 70 | 82 | 0.0 | 0.0 | 0.00 | 0.00 | 0.00 | 68 | 1009.2 |
| 20260509235505 | 70 | 82 | 0.0 | 0.0 | 0.00 | 0.00 | 0.00 | 66 | 1009.2 |
| 20260509235012 | 71 | 82 | 0.0 | 0.0 | 0.00 | 0.00 | 0.00 | 66 | 1009.2 |
| 20260509234536 | 72 | 82 | 0.0 | 0.0 | 0.00 | 0.00 | 0.00 | 64 | 1009.1 |
| 20260509234007 | 72 | 82 | 0.0 | 0.0 | 0.00 | 0.00 | 0.00 | 63 | 1009.0 |
| 20260509233509 | 73 | 38 | 0.0 | 0.0 | 0.00 | 0.00 | 0.00 | 60 | 1009.0 |
| 20260509233039 | 73 | 38 | 0.0 | 0.0 | 0.00 | 0.00 | 0.00 | 57 | 1009.0 |
| 20260509232507 | 73 | 38 | 0.0 | 0.0 | 0.00 | 0.00 | 0.00 | 56 | 1009.1 |
| 20260509232007 | 73 | 38 | 0.0 | 0.0 | 0.00 | 0.00 | 0.00 | 55 | 1009.1 |
| 20260509231512 | 73 | 38 | 0.0 | 1.0 | 0.00 | 0.00 | 0.00 | 56 | 1009.1 |
| 20260509231008 | 74 | 38 | 0.0 | 1.0 | 0.00 | 0.00 | 0.00 | 56 | 1009.1 |
| 20260509230508 | 74 | 41 | 0.0 | 1.0 | 0.00 | 0.00 | 0.00 | 56 | 1009.1 |
| 20260509230012 | 74 | 117 | 0.0 | 0.0 | 0.00 | 0.00 | 0.00 | 56 | 1009.1 |
| 20260509225510 | 74 | 113 | 0.0 | 1.0 | 0.00 | 0.00 | 0.00 | 56 | 1009.0 |
| 20260509225009 | 74 | 113 | 0.0 | 2.0 | 0.00 | 0.00 | 0.00 | 56 | 1009.0 |
| 20260509224516 | 74 | 59 | 0.0 | 2.0 | 0.00 | 0.00 | 0.00 | 54 | 1008.8 |
| 20260509224008 | 74 | 160 | 0.0 | 2.0 | 0.00 | 0.00 | 0.00 | 55 | 1008.9 |
| 20260509223512 | 74 | 117 | 0.0 | 2.0 | 0.00 | 0.00 | 0.00 | 55 | 1008.8 |
| 20260509223016 | 74 | 105 | 0.0 | 2.0 | 0.00 | 0.00 | 0.00 | 54 | 1008.9 |
| 20260509222511 | 74 | 105 | 0.0 | 1.0 | 0.00 | 0.00 | 0.00 | 56 | 1008.8 |
| 20260509222011 | 75 | 113 | 0.0 | 1.0 | 0.00 | 0.00 | 0.00 | 55 | 1008.8 |
| 20260509221513 | 75 | 10 | 0.0 | 1.0 | 0.00 | 0.00 | 0.00 | 54 | 1008.9 |
| 20260509221010 | 75 | 355 | 0.0 | 1.0 | 0.00 | 0.00 | 0.00 | 54 | 1009.0 |
| 20260509220507 | 75 | 101 | 0.0 | 3.0 | 0.00 | 0.00 | 0.00 | 55 | 1009.0 |
| 20260509220020 | 75 | 144 | 0.0 | 3.0 | 0.00 | 0.00 | 0.00 | 54 | 1008.9 |
| 20260509215508 | 75 | 108 | 0.0 | 2.0 | 0.00 | 0.00 | 0.00 | 54 | 1008.8 |
| 20260509215012 | 75 | 107 | 0.0 | 2.0 | 0.00 | 0.00 | 0.00 | 57 | 1008.8 |
| 20260509214516 | 75 | 144 | 0.0 | 2.0 | 0.00 | 0.00 | 0.00 | 57 | 1008.7 |
| 20260509214007 | 75 | 82 | 0.0 | 2.0 | 0.00 | 0.00 | 0.00 | 55 | 1008.7 |
| 20260509213514 | 75 | 26 | 0.0 | 3.0 | 0.00 | 0.00 | 0.00 | 54 | 1008.7 |
| 20260509213016 | 75 | 165 | 1.0 | 3.0 | 0.00 | 0.00 | 0.00 | 54 | 1008.6 |
| 20260509212507 | 75 | 199 | 1.0 | 4.0 | 0.00 | 0.00 | 0.00 | 53 | 1008.7 |
| 20260509212013 | 75 | 178 | 0.0 | 4.0 | 0.00 | 0.00 | 0.00 | 53 | 1008.7 |
| 20260509211520 | 76 | 148 | 1.0 | 4.0 | 0.00 | 0.00 | 0.00 | 51 | 1008.6 |
| 20260509211010 | 77 | 180 | 1.0 | 5.0 | 0.00 | 0.00 | 0.00 | 52 | 1008.7 |
| 20260509210507 | 77 | 306 | 1.0 | 5.0 | 0.00 | 0.00 | 0.00 | 51 | 1008.7 |
| 20260509210024 | 77 | 104 | 1.0 | 3.0 | 0.00 | 0.00 | 0.00 | 51 | 1008.7 |
| 20260509205504 | 77 | 360 | 1.0 | 3.0 | 0.00 | 0.00 | 0.00 | 52 | 1008.7 |
| 20260509205003 | 77 | 324 | 1.0 | 6.0 | 0.00 | 0.00 | 0.00 | 53 | 1008.7 |
| 20260509204520 | 77 | 98 | 1.0 | 6.0 | 0.00 | 0.00 | 0.00 | 51 | 1008.5 |
| 20260509204004 | 77 | 173 | 1.0 | 7.0 | 0.00 | 0.00 | 0.00 | 53 | 1008.5 |
| 20260509203505 | 77 | 171 | 2.0 | 7.0 | 0.00 | 0.00 | 0.00 | 52 | 1008.4 |
| 20260509203032 | 77 | 186 | 1.0 | 8.0 | 0.00 | 0.00 | 0.00 | 53 | 1008.3 |
| 20260509202504 | 77 | 175 | 2.0 | 8.0 | 0.00 | 0.00 | 0.00 | 53 | 1008.4 |
| 20260509202006 | 77 | 136 | 2.0 | 7.0 | 0.00 | 0.00 | 0.00 | 51 | 1008.4 |
| 20260509201522 | 77 | 246 | 1.0 | 8.0 | 0.00 | 0.00 | 0.00 | 52 | 1008.6 |
| 20260509201005 | 78 | 134 | 4.0 | 8.0 | 0.00 | 0.00 | 0.00 | 51 | 1008.6 |
| 20260509200510 | 78 | 173 | 2.0 | 7.0 | 0.00 | 0.00 | 0.00 | 50 | 1008.6 |
| 20260509200024 | 77 | 253 | 0.0 | 7.0 | 0.00 | 0.00 | 0.00 | 53 | 1008.6 |
| 20260509195504 | 77 | 144 | 2.0 | 7.0 | 0.00 | 0.00 | 0.00 | 49 | 1008.7 |
| 20260509195010 | 77 | 96 | 0.0 | 9.0 | 0.00 | 0.00 | 0.00 | 54 | 1008.8 |
| 20260509194530 | 77 | 250 | 3.0 | 9.0 | 0.00 | 0.00 | 0.00 | 52 | 1008.9 |
| 20260509194003 | 76 | 164 | 1.0 | 11.0 | 0.00 | 0.00 | 0.00 | 51 | 1009.0 |
| 20260509193507 | 76 | 9 | 1.0 | 11.0 | 0.00 | 0.00 | 0.00 | 50 | 1009.0 |
| 20260509193025 | 75 | 352 | 0.0 | 6.0 | 0.00 | 0.00 | 0.00 | 54 | 1009.1 |
| 20260509192504 | 74 | 111 | 2.0 | 6.0 | 0.00 | 0.00 | 0.00 | 55 | 1009.2 |
| 20260509192007 | 73 | 188 | 1.0 | 5.0 | 0.00 | 0.00 | 0.00 | 55 | 1009.4 |
| 20260509191526 | 73 | 166 | 0.0 | 8.0 | 0.00 | 0.00 | 0.00 | 55 | 1009.5 |
| 20260509191009 | 74 | 164 | 1.0 | 8.0 | 0.00 | 0.00 | 0.00 | 53 | 1009.4 |
| 20260509190511 | 75 | 122 | 5.0 | 8.0 | 0.00 | 0.00 | 0.00 | 53 | 1009.4 |
| 20260509190026 | 75 | 112 | 1.0 | 8.0 | 0.00 | 0.00 | 0.00 | 54 | 1009.5 |
| 20260509185505 | 75 | 338 | 0.0 | 8.0 | 0.00 | 0.00 | 0.00 | 52 | 1009.6 |
| 20260509185008 | 76 | 150 | 0.0 | 3.0 | 0.00 | 0.00 | 0.00 | 52 | 1009.6 |
| 20260509184537 | 75 | 167 | 0.0 | 3.0 | 0.00 | 0.00 | 0.00 | 55 | 1009.8 |
| 20260509184009 | 74 | 52 | 0.0 | 7.0 | 0.00 | 0.00 | 0.00 | 52 | 1009.8 |
| 20260509183510 | 75 | 268 | 0.0 | 10.0 | 0.00 | 0.00 | 0.00 | 49 | 1009.8 |
| 20260509183032 | 76 | 222 | 2.0 | 10.0 | 0.00 | 0.00 | 0.00 | 51 | 1009.8 |
| 20260509182507 | 76 | 74 | 0.0 | 7.0 | 0.00 | 0.00 | 0.00 | 55 | 1009.9 |
| 20260509182009 | 75 | 175 | 3.0 | 7.0 | 0.00 | 0.00 | 0.00 | 52 | 1010.0 |
| 20260509181505 | 77 | 152 | 2.0 | 4.0 | 0.00 | 0.00 | 0.00 | 51 | 1010.1 |
| 20260509181011 | 76 | 84 | 1.0 | 7.0 | 0.00 | 0.00 | 0.00 | 54 | 1010.2 |
| 20260509180507 | 75 | 163 | 1.0 | 7.0 | 0.00 | 0.00 | 0.00 | 56 | 1010.4 |
| 20260509180015 | 73 | 123 | 1.0 | 8.0 | 0.00 | 0.00 | 0.00 | 55 | 1010.4 |
| 20260509175509 | 74 | 121 | 0.0 | 8.0 | 0.00 | 0.00 | 0.00 | 57 | 1010.4 |
| 20260509175008 | 74 | 153 | 4.0 | 8.0 | 0.00 | 0.00 | 0.00 | 51 | 1010.3 |
| 20260509174508 | 74 | 213 | 3.0 | 8.0 | 0.00 | 0.00 | 0.00 | 55 | 1010.6 |
| 20260509174007 | 73 | 21 | 1.0 | 7.0 | 0.00 | 0.00 | 0.00 | 56 | 1010.6 |
| 20260509173515 | 73 | 135 | 2.0 | 10.0 | 0.00 | 0.00 | 0.00 | 56 | 1010.5 |
| 20260509173014 | 74 | 117 | 3.0 | 10.0 | 0.00 | 0.00 | 0.00 | 53 | 1010.5 |
| 20260509172507 | 75 | 126 | 1.0 | 7.0 | 0.00 | 0.00 | 0.00 | 55 | 1010.5 |
| 20260509172008 | 75 | 156 | 3.0 | 7.0 | 0.00 | 0.00 | 0.00 | 55 | 1010.5 |
| 20260509171519 | 73 | 116 | 2.0 | 5.0 | 0.00 | 0.00 | 0.00 | 56 | 1010.6 |
| 20260509171011 | 74 | 171 | 1.0 | 6.0 | 0.00 | 0.00 | 0.00 | 53 | 1010.7 |
| 20260509170508 | 74 | 196 | 1.0 | 7.0 | 0.00 | 0.00 | 0.00 | 53 | 1010.7 |
| 20260509170008 | 74 | 90 | 1.0 | 7.0 | 0.00 | 0.00 | 0.00 | 54 | 1010.9 |
| 20260509165508 | 74 | 138 | 2.0 | 11.0 | 0.00 | 0.00 | 0.00 | 56 | 1011.1 |
| 20260509165009 | 73 | 246 | 2.0 | 11.0 | 0.00 | 0.00 | 0.00 | 57 | 1011.3 |
| 20260509164509 | 74 | 142 | 3.0 | 7.0 | 0.00 | 0.00 | 0.00 | 53 | 1011.2 |
| 20260509164009 | 73 | 134 | 2.0 | 6.0 | 0.00 | 0.00 | 0.00 | 61 | 1011.4 |
| 20260509163508 | 72 | 88 | 1.0 | 6.0 | 0.00 | 0.00 | 0.00 | 57 | 1011.6 |
| 20260509163014 | 72 | 144 | 2.0 | 10.0 | 0.00 | 0.00 | 0.00 | 57 | 1011.5 |
| 20260509162508 | 72 | 156 | 3.0 | 10.0 | 0.00 | 0.00 | 0.00 | 55 | 1011.4 |
| 20260509162008 | 72 | 168 | 2.0 | 6.0 | 0.00 | 0.00 | 0.00 | 56 | 1011.3 |
| 20260509161517 | 72 | 142 | 2.0 | 4.0 | 0.00 | 0.00 | 0.00 | 60 | 1011.4 |
| 20260509161014 | 73 | 307 | 1.0 | 4.0 | 0.00 | 0.00 | 0.00 | 60 | 1011.4 |
| 20260509160510 | 71 | 198 | 1.0 | 5.0 | 0.00 | 0.00 | 0.00 | 61 | 1011.5 |
| 20260509160014 | 71 | 159 | 2.0 | 7.0 | 0.00 | 0.00 | 0.00 | 58 | 1011.6 |
| 20260509155508 | 72 | 139 | 3.0 | 7.0 | 0.00 | 0.00 | 0.00 | 54 | 1011.6 |
| 20260509155010 | 72 | 138 | 1.0 | 6.0 | 0.00 | 0.00 | 0.00 | 58 | 1011.6 |
| 20260509154516 | 71 | 195 | 1.0 | 9.0 | 0.00 | 0.00 | 0.00 | 58 | 1011.7 |
| 20260509154011 | 70 | 133 | 3.0 | 9.0 | 0.00 | 0.00 | 0.00 | 58 | 1011.9 |
| 20260509153508 | 71 | 148 | 1.0 | 5.0 | 0.00 | 0.00 | 0.00 | 57 | 1012.1 |
| 20260509153020 | 70 | 328 | 1.0 | 9.0 | 0.00 | 0.00 | 0.00 | 58 | 1012.1 |
| 20260509152507 | 70 | 144 | 4.0 | 9.0 | 0.00 | 0.00 | 0.00 | 60 | 1011.9 |
| 20260509152010 | 70 | 161 | 1.0 | 7.0 | 0.00 | 0.00 | 0.00 | 60 | 1011.9 |
| 20260509151517 | 70 | 184 | 2.0 | 7.0 | 0.00 | 0.00 | 0.00 | 58 | 1012.0 |
| 20260509151008 | 70 | 167 | 2.0 | 7.0 | 0.00 | 0.00 | 0.00 | 59 | 1012.2 |
| 20260509150510 | 70 | 204 | 2.0 | 6.0 | 0.00 | 0.00 | 0.00 | 62 | 1012.2 |
| 20260509150016 | 69 | 83 | 2.0 | 6.0 | 0.00 | 0.00 | 0.00 | 65 | 1012.1 |
| 20260509145510 | 70 | 261 | 2.0 | 6.0 | 0.00 | 0.00 | 0.00 | 63 | 1012.3 |
| 20260509145015 | 69 | 118 | 2.0 | 10.0 | 0.00 | 0.00 | 0.00 | 62 | 1012.4 |
| 20260509144518 | 69 | 360 | 0.0 | 10.0 | 0.00 | 0.00 | 0.00 | 66 | 1012.4 |
| 20260509144007 | 68 | 192 | 3.0 | 10.0 | 0.00 | 0.00 | 0.00 | 63 | 1012.6 |
| 20260509143511 | 69 | 185 | 2.0 | 8.0 | 0.00 | 0.00 | 0.00 | 64 | 1012.7 |
| 20260509143016 | 68 | 120 | 1.0 | 7.0 | 0.00 | 0.00 | 0.00 | 66 | 1012.8 |
| 20260509142508 | 67 | 181 | 1.0 | 7.0 | 0.00 | 0.00 | 0.00 | 68 | 1013.0 |
| 20260509142009 | 67 | 138 | 1.0 | 7.0 | 0.00 | 0.00 | 0.00 | 67 | 1013.1 |
| 20260509141524 | 67 | 113 | 1.0 | 6.0 | 0.00 | 0.00 | 0.00 | 69 | 1013.0 |
| 20260509141013 | 67 | 150 | 1.0 | 6.0 | 0.00 | 0.00 | 0.00 | 66 | 1012.9 |
| 20260509140509 | 67 | 183 | 1.0 | 8.0 | 0.00 | 0.00 | 0.00 | 66 | 1013.0 |
| 20260509140021 | 66 | 265 | 2.0 | 8.0 | 0.00 | 0.00 | 0.00 | 68 | 1012.9 |
| 20260509135510 | 66 | 74 | 2.0 | 8.0 | 0.00 | 0.00 | 0.00 | 70 | 1012.8 |
| 20260509135013 | 65 | 109 | 1.0 | 7.0 | 0.00 | 0.00 | 0.00 | 72 | 1012.8 |
| 20260509134519 | 64 | 182 | 2.0 | 7.0 | 0.00 | 0.00 | 0.00 | 72 | 1012.9 |
| 20260509134009 | 64 | 183 | 1.0 | 5.0 | 0.00 | 0.00 | 0.00 | 73 | 1013.1 |
| 20260509133514 | 63 | 167 | 0.0 | 6.0 | 0.00 | 0.00 | 0.00 | 74 | 1013.1 |
| 20260509133022 | 63 | 204 | 1.0 | 5.0 | 0.00 | 0.00 | 0.00 | 74 | 1013.3 |
| 20260509132511 | 63 | 159 | 0.0 | 5.0 | 0.00 | 0.00 | 0.00 | 75 | 1013.4 |
| 20260509132011 | 63 | 140 | 0.0 | 5.0 | 0.00 | 0.00 | 0.00 | 75 | 1013.4 |
| 20260509131521 | 63 | 173 | 1.0 | 5.0 | 0.00 | 0.00 | 0.00 | 76 | 1013.5 |
| 20260509131012 | 62 | 107 | 0.0 | 4.0 | 0.00 | 0.00 | 0.00 | 77 | 1013.4 |
| 20260509130513 | 62 | 116 | 0.0 | 4.0 | 0.00 | 0.00 | 0.00 | 76 | 1013.3 |
| 20260509130023 | 62 | 194 | 1.0 | 7.0 | 0.00 | 0.00 | 0.00 | 78 | 1013.3 |
| 20260509125519 | 61 | 107 | 1.0 | 7.0 | 0.00 | 0.00 | 0.00 | 77 | 1013.2 |
| 20260509125009 | 61 | 149 | 0.0 | 7.0 | 0.00 | 0.00 | 0.00 | 79 | 1013.1 |
| 20260509124535 | 60 | 123 | 1.0 | 9.0 | 0.00 | 0.00 | 0.00 | 78 | 1013.1 |
| 20260509124009 | 60 | 201 | 2.0 | 9.0 | 0.00 | 0.00 | 0.00 | 79 | 1013.1 |
| 20260509123509 | 60 | 157 | 2.0 | 9.0 | 0.00 | 0.00 | 0.00 | 79 | 1013.1 |
| 20260509123023 | 60 | 121 | 1.0 | 6.0 | 0.00 | 0.00 | 0.00 | 80 | 1013.2 |
| 20260509122516 | 59 | 293 | 0.0 | 6.0 | 0.00 | 0.00 | 0.00 | 80 | 1013.2 |
| 20260509122014 | 59 | 189 | 1.0 | 6.0 | 0.00 | 0.00 | 0.00 | 80 | 1013.2 |
| 20260509121535 | 58 | 116 | 1.0 | 6.0 | 0.00 | 0.00 | 0.00 | 81 | 1013.3 |
| 20260509121011 | 58 | 229 | 1.0 | 8.0 | 0.00 | 0.00 | 0.00 | 82 | 1013.4 |
| 20260509120508 | 58 | 145 | 3.0 | 8.0 | 0.00 | 0.00 | 0.00 | 82 | 1013.6 |
| 20260509120007 | 57 | 246 | 1.0 | 7.0 | 0.00 | 0.00 | 0.00 | 82 | 1013.5 |
| 20260509115504 | 57 | 190 | 1.0 | 6.0 | 0.00 | 0.00 | 0.00 | 83 | 1013.3 |
| 20260509115002 | 57 | 160 | 2.0 | 8.0 | 0.00 | 0.00 | 0.00 | 83 | 1013.2 |
| 20260509114517 | 57 | 159 | 1.0 | 10.0 | 0.00 | 0.00 | 0.00 | 84 | 1013.2 |
| 20260509114006 | 56 | 168 | 1.0 | 10.0 | 0.00 | 0.00 | 0.00 | 84 | 1013.1 |
| 20260509113503 | 56 | 171 | 1.0 | 7.0 | 0.00 | 0.00 | 0.00 | 85 | 1013.0 |
| 20260509113005 | 55 | 146 | 2.0 | 7.0 | 0.00 | 0.00 | 0.00 | 85 | 1013.0 |
| 20260509112506 | 55 | 140 | 1.0 | 6.0 | 0.00 | 0.00 | 0.00 | 85 | 1013.1 |
| 20260509112004 | 55 | 236 | 1.0 | 8.0 | 0.00 | 0.00 | 0.00 | 86 | 1013.1 |
| 20260509111503 | 55 | 126 | 0.0 | 8.0 | 0.00 | 0.00 | 0.00 | 85 | 1013.0 |
| 20260509111007 | 54 | 188 | 3.0 | 8.0 | 0.00 | 0.00 | 0.00 | 86 | 1012.9 |
| 20260509110502 | 54 | 124 | 1.0 | 4.0 | 0.00 | 0.00 | 0.00 | 86 | 1013.0 |
| 20260509110006 | 54 | 165 | 1.0 | 4.0 | 0.00 | 0.00 | 0.00 | 86 | 1013.0 |
| 20260509105507 | 54 | 101 | 1.0 | 4.0 | 0.00 | 0.00 | 0.00 | 85 | 1013.0 |
| 20260509105005 | 54 | 147 | 1.0 | 5.0 | 0.00 | 0.00 | 0.00 | 85 | 1013.0 |
| 20260509104508 | 54 | 195 | 2.0 | 9.0 | 0.00 | 0.00 | 0.00 | 85 | 1013.0 |
| 20260509104006 | 54 | 136 | 2.0 | 9.0 | 0.00 | 0.00 | 0.00 | 85 | 1013.1 |
| 20260509103503 | 54 | 165 | 1.0 | 5.0 | 0.00 | 0.00 | 0.00 | 85 | 1013.0 |
| 20260509103008 | 53 | 180 | 1.0 | 5.0 | 0.00 | 0.00 | 0.00 | 85 | 1013.0 |
| 20260509102506 | 54 | 157 | 0.0 | 3.0 | 0.00 | 0.00 | 0.00 | 85 | 1013.0 |
| 20260509102005 | 54 | 177 | 0.0 | 3.0 | 0.00 | 0.00 | 0.00 | 85 | 1013.0 |
| 20260509101510 | 54 | 226 | 0.0 | 8.0 | 0.00 | 0.00 | 0.00 | 84 | 1012.9 |
| 20260509101007 | 54 | 183 | 2.0 | 8.0 | 0.00 | 0.00 | 0.00 | 85 | 1012.8 |
| 20260509100503 | 53 | 175 | 1.0 | 6.0 | 0.00 | 0.00 | 0.00 | 85 | 1012.8 |
| 20260509100008 | 53 | 211 | 0.0 | 8.0 | 0.00 | 0.00 | 0.00 | 84 | 1012.9 |
| 20260509095510 | 53 | 144 | 0.0 | 8.0 | 0.00 | 0.00 | 0.00 | 84 | 1012.9 |
| 20260509095005 | 53 | 117 | 0.0 | 3.0 | 0.00 | 0.00 | 0.00 | 84 | 1012.9 |
| 20260509094507 | 53 | 130 | 1.0 | 5.0 | 0.00 | 0.00 | 0.00 | 84 | 1012.9 |
| 20260509094009 | 54 | 82 | 2.0 | 6.0 | 0.00 | 0.00 | 0.00 | 83 | 1012.9 |
| 20260509093502 | 54 | 181 | 1.0 | 6.0 | 0.00 | 0.00 | 0.00 | 83 | 1012.9 |
| 20260509093010 | 54 | 134 | 1.0 | 3.0 | 0.00 | 0.00 | 0.00 | 83 | 1013.0 |
| 20260509092507 | 54 | 163 | 1.0 | 6.0 | 0.00 | 0.00 | 0.00 | 82 | 1013.0 |
| 20260509092002 | 54 | 168 | 0.0 | 6.0 | 0.00 | 0.00 | 0.00 | 82 | 1013.1 |
| 20260509091511 | 54 | 170 | 1.0 | 6.0 | 0.00 | 0.00 | 0.00 | 81 | 1013.0 |
| 20260509091012 | 54 | 110 | 1.0 | 6.0 | 0.00 | 0.00 | 0.00 | 81 | 1013.1 |
| 20260509090504 | 54 | 171 | 0.0 | 4.0 | 0.00 | 0.00 | 0.00 | 81 | 1013.1 |
| 20260509090031 | 54 | 215 | 0.0 | 4.0 | 0.00 | 0.00 | 0.00 | 80 | 1013.1 |
| 20260509085507 | 54 | 141 | 0.0 | 6.0 | 0.00 | 0.00 | 0.00 | 80 | 1013.0 |
| 20260509085003 | 54 | 189 | 1.0 | 6.0 | 0.00 | 0.00 | 0.00 | 79 | 1013.0 |
| 20260509084520 | 54 | 144 | 1.0 | 5.0 | 0.00 | 0.00 | 0.00 | 79 | 1012.9 |
| 20260509084010 | 54 | 150 | 1.0 | 5.0 | 0.00 | 0.00 | 0.00 | 79 | 1012.8 |
| 20260509083502 | 54 | 218 | 1.0 | 6.0 | 0.00 | 0.00 | 0.00 | 78 | 1012.9 |
| 20260509083032 | 54 | 196 | 1.0 | 6.0 | 0.00 | 0.00 | 0.00 | 78 | 1012.8 |
| 20260509082513 | 54 | 178 | 1.0 | 6.0 | 0.00 | 0.00 | 0.00 | 77 | 1012.8 |
| 20260509082009 | 54 | 197 | 1.0 | 6.0 | 0.00 | 0.00 | 0.00 | 77 | 1012.9 |
| 20260509081523 | 55 | 191 | 1.0 | 5.0 | 0.00 | 0.00 | 0.00 | 77 | 1012.7 |
| 20260509081016 | 55 | 136 | 1.0 | 5.0 | 0.00 | 0.00 | 0.00 | 76 | 1012.7 |
| 20260509080503 | 55 | 172 | 1.0 | 5.0 | 0.00 | 0.00 | 0.00 | 75 | 1012.8 |
| 20260509080016 | 55 | 171 | 0.0 | 6.0 | 0.00 | 0.00 | 0.00 | 74 | 1012.9 |
| 20260509075510 | 56 | 102 | 1.0 | 6.0 | 0.00 | 0.00 | 0.00 | 74 | 1013.0 |
| 20260509075006 | 56 | 180 | 0.0 | 2.0 | 0.00 | 0.00 | 0.00 | 73 | 1013.0 |
| 20260509074529 | 56 | 144 | 0.0 | 2.0 | 0.00 | 0.00 | 0.00 | 73 | 1013.1 |